YAOGAN-35 03C (53320 NORAD) Tracking and Keplerian Element Data

This shows tracking and keplerian element data for the satellite.

Feedback or suggestion? Click here.




ElementValue
Catalog53320
NameYAOGAN-35 03C
Epoch Orbit907
Epoch Day270.00955881
Epoch Year2022
RAAN110.7403
Inclination34.9955
Eccentricity0.0003941
Argument of Perigee28.5749
Mean Anonmoly99.5795
Mean Motion15.22944653
Decay Rate9.321E-05
L11 53320U 22088E 22270.00955881 .00009321 00000+0 38857-3 0 9990
L22 53320 34.9955 110.7403 0003941 28.5749 99.5795 15.22944653 9079

Live tracking and technical data element details for YAOGAN-35 03C (NORAD 53320). YAOGAN-35 03C can be tracked NOW for your location showing map with azimuth and elevation plus other details from your city location.

Track the satellite on the map from your city or location and see movement details for azimuth, elevation, latitude, longitude, range, height, and movement on the map or in text.







IsCatalogInMostPopularTable: catalog: 53320, numindb: 3
Update: records affected: 1



GetName: 53320 YAOGAN-35 03C

Hit Count: updated at: Fri, 30 Sep 2022 02:54:17 GMT